Hourly Data Report for April 11, 2016

All times are specified in Local Standard Time (LST). Add 1 hour to adjust for Daylight Saving Time where and when it is observed.

EMERSON AUTO
MANITOBA

49°00'00.000" N
97°14'15.000" W
242.00 m
5020881
71560
WEX

Download Data

Hourly Data (April 2016)
Hourly Data Report for April 11, 2016
Temp Definition
°C
Dew Point Temp Definition
°C
Rel Hum Definition
%
Wind Dir Definition
10's deg

Wind Spd Definition
km/h
Visibility Definition
km
Stn Press Definition
kPa
Hmdx Definition


Wind Chill Definition


Weather Definition


TIME
00:00 -4.9 -6.7 87 33 36   98.47   -14 LegendNANA
01:00 -5.1 -6.6 89 33 37   98.55   -14 LegendNANA
02:00 -5.2 -7.0 87 33 38   98.62   -14 LegendNANA
03:00 -5.8 -7.7 86 33 41   98.71   -15 LegendNANA
04:00 -6.7 -8.8 85 34 39   98.80   -16 LegendNANA
05:00 -7.8 -9.6 87 34 39   98.93   -18 LegendNANA
06:00 -8.4 -10.1 87 33 36   99.04   -18 LegendNANA
07:00 -8.1 -10.3 84 33 39   99.14   -18 LegendNANA
08:00 -6.3 -9.9 76 34 38   99.19   -16 LegendNANA
09:00 -5.5 -10.8 66 34 41   99.26   -15 LegendNANA
10:00 -4.1 -11.4 57 34 39   99.33   -13 LegendNANA
11:00 -2.7 -11.6 50 34 36   99.36   -11 LegendNANA
12:00 -2.1 -12.2 46 35 36   99.40   -10 LegendNANA
13:00 -1.3 -11.9 44 34 35   99.42   -9 LegendNANA
14:00 -0.4 -11.1 44 35 30   99.46   -7 LegendNANA
15:00 -0.5 -12.0 41 32 30   99.45   -7 LegendNANA
16:00 -0.4 -12.4 40 33 24   99.47   -6 LegendNANA
17:00 -0.5 -13.2 38 35 24   99.48   -6 LegendNANA
18:00 -1.3 -12.8 41 34 24   99.47   -7 LegendNANA
19:00 -2.7 -12.3 48 34 18   99.51   -8 LegendNANA
20:00 -4.7 -11.5 59 1 10   99.53   -9 LegendNANA
21:00 -5.5 -11.3 64 4 4   99.56   -7 LegendNANA
22:00 -6.4 -11.9 65 10 3   99.53   -8 LegendNANA
23:00 -7.5 -11.0 76 14 2   99.53   -9 LegendNANA

Notes on Data Quality.

Legend

  • E = Estimated
  • M = Missing
  • NA = Not Available
  • ‡ = Partner data that is not subject to review by the National Climate Archives
Date modified: